EW7525 Weather Reports


time (UTC)temp
F
wind
direction
speed
knots
gust
knots
rain 1hr
in
rain 24hr
in
rain mn
in
humidity
%
barometer
mb
20260506231714 70 279 0.9 7.8 0.00 0.00 0.00 29 1017.5
20260506231439 71 269 0.0 6.1 0.00 0.00 0.00 32 1017.7
20260506231203 70 269 0.0 3.5 0.00 0.00 0.00 30 1017.6
20260506230702 71 272 0.0 0.9 0.00 0.00 0.00 32 1017.6
20260506225703 71 273 0.9 7.0 0.00 0.00 0.00 30 1017.6
20260506225203 71 286 1.7 9.6 0.00 0.00 0.00 32 1017.7
20260506224700 71 254 0.9 9.6 0.00 0.00 0.00 35 1017.7
20260506224200 71 277 0.9 9.6 0.00 0.00 0.00 32 1017.8
20260506223656 71 279 0.9 8.7 0.00 0.00 0.00 34 1017.8
20260506223438 72 296 0.0 7.0 0.00 0.00 0.00 39 1017.9
20260506222926 73 331 0.0 2.6 0.00 0.00 0.00 39 1017.9
20260506222154 73 270 0.0 6.1 0.00 0.00 0.00 38 1017.9
20260506221652 73 283 0.9 8.7 0.00 0.00 0.00 36 1017.9
20260506221422 73 278 0.9 8.7 0.00 0.00 0.00 37 1018.0
20260506220653 73 284 0.0 8.7 0.00 0.00 0.00 37 1018.0
20260506220152 73 265 0.0 8.7 0.00 0.00 0.00 37 1018.0
20260506215646 73 281 0.0 8.7 0.00 0.00 0.00 33 1018.1
20260506215146 73 272 0.0 8.7 0.00 0.00 0.00 35 1018.1
20260506214916 73 267 0.9 10.4 0.00 0.00 0.00 33 1018.1
20260506214149 73 274 1.7 10.4 0.00 0.00 0.00 40 1018.2
20260506213647 73 267 1.7 10.4 0.00 0.00 0.00 39 1018.2
20260506213148 74 274 1.7 9.6 0.00 0.00 0.00 38 1018.2
20260506212916 74 276 1.7 10.4 0.00 0.00 0.00 39 1018.2
20260506212142 74 254 2.6 10.4 0.00 0.00 0.00 39 1018.3
20260506211643 74 262 2.6 9.6 0.00 0.00 0.00 41 1018.3
20260506211142 75 260 1.7 7.8 0.00 0.00 0.00 40 1018.3
20260506210642 75 272 0.9 7.8 0.00 0.00 0.00 36 1018.3
20260506210411 75 293 0.0 9.6 0.00 0.00 0.00 43 1018.3
20260506205639 75 263 0.9 9.6 0.00 0.00 0.00 40 1018.3
20260506205140 75 249 0.0 3.5 0.00 0.00 0.00 37 1018.3
20260506204639 75 309 0.9 7.0 0.00 0.00 0.00 31 1018.3
20260506204134 74 277 0.9 7.0 0.00 0.00 0.00 27 1018.3
20260506203635 74 279 0.9 7.0 0.00 0.00 0.00 31 1018.3
20260506203135 73 258 0.9 7.0 0.00 0.00 0.00 27 1018.3
20260506202635 73 240 0.9 7.8 0.00 0.00 0.00 20 1018.4
20260506202134 73 273 0.9 9.6 0.00 0.00 0.00 18 1018.4
20260506201631 72 248 1.7 9.6 0.00 0.00 0.00 21 1018.5
20260506201132 73 287 0.9 9.6 0.00 0.00 0.00 18 1018.5
20260506200859 72 267 0.0 6.1 0.00 0.00 0.00 9 1018.5
20260506200129 71 290 0.0 6.1 0.00 0.00 0.00 9 1018.6
20260506195627 71 268 0.9 7.8 0.00 0.00 0.00 12 1018.6
20260506195128 72 264 0.9 7.8 0.00 0.00 0.00 18 1018.7
20260506194626 72 278 0.9 7.0 0.00 0.00 0.00 20 1018.7
20260506194126 72 282 0.9 7.0 0.00 0.00 0.00 12 1018.7
20260506193620 72 286 0.0 3.5 0.00 0.00 0.00 17 1018.7
20260506193120 73 269 0.0 0.9 0.00 0.00 0.00 21 1018.9
20260506192621 73 281 0.0 6.1 0.00 0.00 0.00 27 1018.9
20260506192120 73 250 0.0 6.1 0.00 0.00 0.00 24 1018.9
20260506191620 73 280 0.0 0.9 0.00 0.00 0.00 22 1018.9
20260506191119 73 254 0.0 3.5 0.00 0.00 0.00 29 1018.9
20260506190618 73 259 0.0 3.5 0.00 0.00 0.00 30 1019.0
20260506190116 73 270 0.0 0.0 0.00 0.00 0.00 28 1019.0
20260506185615 73 261 0.0 0.0 0.00 0.00 0.00 32 1019.0
20260506185119 73 267 0.0 0.0 0.00 0.00 0.00 29 1019.1
20260506185115 73 261 0.0 0.0 0.00 0.00 0.00 33 1019.0
20260506184115 73 259 0.0 0.0 0.00 0.00 0.00 32 1019.1
20260506183610 73 261 0.0 0.0 0.00 0.00 0.00 31 1019.2
20260506183341 73 265 0.0 0.0 0.00 0.00 0.00 28 1019.1
20260506183215 73 263 0.0 0.0 0.00 0.00 0.00 27 1019.1
20260506182108 73 262 0.0 0.0 0.00 0.00 0.00 28 1019.2
20260506181612 73 268 0.0 0.0 0.00 0.00 0.00 32 1019.1
20260506181608 73 259 0.0 0.0 0.00 0.00 0.00 31 1019.2
20260506180606 73 306 0.0 0.0 0.00 0.00 0.00 31 1019.2
20260506180111 73 78 0.0 0.0 0.00 0.00 0.00 34 1019.2
20260506175835 73 268 0.0 0.0 0.00 0.00 0.00 26 1019.1
20260506175104 73 254 0.0 0.0 0.00 0.00 0.00 23 1019.0
20260506174602 72 252 0.0 0.0 0.00 0.00 0.00 20 1019.0
20260506174103 71 258 0.0 0.0 0.00 0.00 0.00 17 1019.1
20260506173556 71 255 0.0 0.0 0.00 0.00 0.00 19 1019.2
20260506173056 71 272 0.0 0.0 0.00 0.00 0.00 6 1019.2
20260506172822 71 273 0.0 0.0 0.00 0.00 0.00 3 1019.2
20260506172321 70 268 0.0 0.0 0.00 0.00 0.00 3 1019.1
20260506171550 70 264 0.0 2.6 0.00 0.00 0.00 1 1019.2
20260506171049 69 270 0.0 0.0 0.00 0.00 0.00 1 1019.3
20260506171045 70 270 0.0 2.6 0.00 0.00 0.00 1 1019.3
20260506170057 69 270 0.0 1.7 0.00 0.00 0.00 1 1019.3
20260506165545 69 268 0.0 1.7 0.00 0.00 0.00 1 1019.3
20260506165044 68 267 0.0 0.0 0.00 0.00 0.00 1 1019.4
20260506164546 67 259 0.0 0.0 0.00 0.00 0.00 1 1019.3
20260506164314 67 259 0.0 0.0 0.00 0.00 0.00 1 1019.4
20260506163542 67 267 0.0 0.0 0.00 0.00 0.00 1 1019.4
20260506163042 66 260 0.0 0.0 0.00 0.00 0.00 1 1019.5
20260506162540 66 259 0.0 0.0 0.00 0.00 0.00 1 1019.4
20260506162050 65 185 0.0 1.7 0.00 0.00 0.00 1 1019.3
20260506161539 65 185 0.0 1.7 0.00 0.00 0.00 1 1019.4
20260506161044 64 261 0.0 0.0 0.00 0.00 0.00 1 1019.4
20260506160803 63 261 0.0 0.0 0.00 0.00 0.00 1 1019.4
20260506160637 62 261 0.0 0.0 0.00 0.00 0.00 1 1019.5
20260506155532 62 256 0.0 0.0 0.00 0.00 0.00 1 1019.4
20260506155032 61 267 0.0 0.0 0.00 0.00 0.00 1 1019.4
20260506154533 61 256 0.0 0.0 0.00 0.00 0.00 1 1019.4
20260506154026 60 256 0.0 0.0 0.00 0.00 0.00 1 1019.4
20260506153523 60 257 0.0 0.0 0.00 0.00 0.00 1 1019.3
20260506153022 59 255 0.0 0.0 0.00 0.00 0.00 1 1019.4
20260506152750 59 257 0.0 0.0 0.00 0.00 0.00 1 1019.3
20260506152020 59 257 0.0 0.0 0.00 0.00 0.00 1 1019.3
20260506151517 58 258 0.0 0.0 0.00 0.00 0.00 1 1019.3
20260506151248 58 252 0.0 0.0 0.00 0.00 0.00 1 1019.3
20260506150748 58 250 0.0 0.0 0.00 0.00 0.00 1 1019.3
20260506150247 58 250 0.0 0.0 0.00 0.00 0.00 1 1019.3
20260506145513 58 250 0.0 0.0 0.00 0.00 0.00 1 1019.3
20260506145013 57 250 0.0 0.0 0.00 0.00 0.00 1 1019.3
20260506144513 57 254 0.0 0.0 0.00 0.00 0.00 1 1019.3
20260506144014 57 254 0.0 0.0 0.00 0.00 0.00 1 1019.2
20260506143512 56 254 0.0 0.0 0.00 0.00 0.00 1 1019.2
20260506143013 56 254 0.0 0.0 0.00 0.00 0.00 1 1019.1
20260506142509 56 254 0.0 0.0 0.00 0.00 0.00 1 1019.1
20260506142009 56 254 0.0 0.0 0.00 0.00 0.00 1 1019.1
20260506141509 56 254 0.0 0.0 0.00 0.00 0.00 1 1019.0
20260506141009 56 254 0.0 0.0 0.00 0.00 0.00 1 1019.0
20260506140509 56 254 0.0 0.0 0.00 0.00 0.00 1 1018.9
20260506140009 55 254 0.0 0.0 0.00 0.00 0.00 1 1018.9
20260506135510 55 254 0.0 0.0 0.00 0.00 0.00 1 1018.8
20260506135009 55 254 0.0 0.0 0.00 0.00 0.00 1 1018.8
20260506134509 55 254 0.0 0.0 0.00 0.00 0.00 1 1018.8
20260506134010 55 253 0.0 0.0 0.00 0.00 0.00 1 1018.8
20260506133510 55 253 0.0 0.0 0.00 0.00 0.00 1 1018.8
20260506133236 55 253 0.0 0.0 0.00 0.00 0.00 1 1018.8
20260506132505 55 254 0.0 0.0 0.00 0.00 0.00 1 1018.8
20260506132020 55 254 0.0 0.0 0.00 0.00 0.00 1 1018.8
20260506131507 55 254 0.0 0.0 0.00 0.00 0.00 1 1018.7
20260506131005 55 254 0.0 0.0 0.00 0.00 0.00 1 1018.7
20260506130518 55 254 0.0 0.0 0.00 0.00 0.00 1 1018.7
20260506130003 55 254 0.0 0.0 0.00 0.00 0.00 1 1018.7
20260506125500 56 256 0.0 0.0 0.00 0.00 0.00 1 1018.7
20260506125001 56 256 0.0 0.0 0.00 0.00 0.00 1 1018.6
20260506124500 56 256 0.0 0.0 0.00 0.00 0.00 1 1018.6
20260506124234 56 256 0.0 0.0 0.00 0.00 0.00 1 1018.6
20260506123501 56 252 0.0 0.0 0.00 0.00 0.00 1 1018.5
20260506122957 56 257 0.0 0.0 0.00 0.00 0.00 1 1018.5
20260506122455 56 257 0.0 0.0 0.00 0.00 0.00 1 1018.5
20260506121953 56 257 0.0 0.0 0.00 0.00 0.00 1 1018.5
20260506121447 56 257 0.0 0.0 0.00 0.00 0.00 1 1018.4
20260506120946 56 257 0.0 0.0 0.00 0.00 0.00 1 1018.4
20260506120445 56 257 0.0 0.0 0.00 0.00 0.00 1 1018.4
20260506115943 56 257 0.0 0.0 0.00 0.00 0.00 1 1018.3
20260506115445 56 257 0.0 0.0 0.00 0.00 0.00 1 1018.3
20260506114941 56 257 0.0 0.0 0.00 0.00 0.00 1 1018.3
20260506114441 56 257 0.0 0.0 0.00 0.00 0.00 1 1018.3
20260506113939 56 250 0.0 0.0 0.00 0.00 0.00 1 1018.2
20260506113437 56 250 0.0 0.0 0.00 0.00 0.00 1 1018.2
20260506112937 56 250 0.0 0.0 0.00 0.00 0.00 1 1018.2
20260506112438 56 261 0.0 0.0 0.00 0.00 0.00 1 1018.1
20260506111935 56 261 0.0 0.0 0.00 0.00 0.00 1 1018.1
20260506111435 56 261 0.0 0.0 0.00 0.00 0.00 1 1018.1
20260506111200 56 261 0.0 0.0 0.00 0.00 0.00 1 1018.1
20260506110429 56 261 0.0 0.0 0.00 0.00 0.00 1 1018.0
20260506105927 56 261 0.0 0.0 0.00 0.00 0.00 1 1018.0
20260506105427 56 261 0.0 0.0 0.00 0.00 0.00 1 1018.0
20260506104927 56 261 0.0 0.0 0.00 0.00 0.00 1 1018.0
20260506104424 56 261 0.0 0.0 0.00 0.00 0.00 1 1017.9
20260506103921 56 261 0.0 0.0 0.00 0.00 0.00 1 1017.8
20260506103419 56 261 0.0 0.0 0.00 0.00 0.00 1 1017.8
20260506102917 56 261 0.0 0.0 0.00 0.00 0.00 1 1017.9
20260506102415 56 261 0.0 0.0 0.00 0.00 0.00 1 1017.8
20260506101913 56 262 0.0 0.0 0.00 0.00 0.00 1 1017.8
20260506101644 56 261 0.0 0.0 0.00 0.00 0.00 1 1017.7
20260506100908 56 262 0.0 0.0 0.00 0.00 0.00 1 1017.7
20260506100410 56 262 0.0 0.0 0.00 0.00 0.00 1 1017.7
20260506100405 56 262 0.0 0.0 0.00 0.00 0.00 1 1017.7
20260506095742 56 262 0.0 0.0 0.00 0.00 0.00 1 1017.8
20260506095637 56 262 0.0 0.0 0.00 0.00 0.00 1 1017.7
20260506094905 56 262 0.0 0.0 0.00 0.00 0.00 1 1017.7
20260506094131 56 262 0.0 0.0 0.00 0.00 0.00 1 1017.8
20260506093357 56 262 0.0 0.0 0.00 0.00 0.00 1 1017.7
20260506092856 56 262 0.0 0.0 0.00 0.00 0.00 1 1017.8
20260506092353 56 262 0.0 0.0 0.00 0.00 0.00 1 1017.8
20260506091852 56 262 0.0 0.0 0.00 0.00 0.00 1 1017.8
20260506091618 56 262 0.0 0.0 0.00 0.00 0.00 1 1017.8
20260506090846 56 262 0.0 0.0 0.00 0.00 0.00 1 1017.8
20260506090343 56 262 0.0 0.0 0.00 0.00 0.00 1 1017.8
20260506085841 56 262 0.0 0.0 0.00 0.00 0.00 1 1017.9
20260506085345 56 263 0.0 0.0 0.00 0.00 0.00 1 1017.9
20260506085341 56 262 0.0 0.0 0.00 0.00 0.00 1 1017.9
20260506084336 56 262 0.0 0.0 0.00 0.00 0.00 1 1017.8
20260506083839 56 262 0.0 0.0 0.00 0.00 0.00 1 1017.8
20260506083337 56 262 0.0 0.0 0.00 0.00 0.00 1 1017.8
20260506082834 56 262 0.0 0.0 0.00 0.00 0.00 1 1017.8
20260506082337 56 262 0.0 0.0 0.00 0.00 0.00 1 1017.8
20260506082104 56 262 0.0 0.0 0.00 0.00 0.00 1 1017.8
20260506081607 56 262 0.0 0.0 0.00 0.00 0.00 1 1017.8
20260506081331 56 262 0.0 0.0 0.00 0.00 0.00 1 1017.8
20260506080329 56 262 0.0 0.0 0.00 0.01 0.00 1 1017.8
20260506073325 56 261 0.0 0.0 0.00 0.06 0.00 1 1017.5
20260506072823 56 261 0.0 0.0 0.00 0.06 0.00 1 1017.4
20260506072322 56 261 0.0 0.0 0.00 0.06 0.00 1 1017.4
20260506071817 56 261 0.0 0.0 0.00 0.06 0.00 1 1017.4
20260506071314 56 265 0.0 0.0 0.00 0.07 0.00 1 1017.4
20260506071043 56 274 0.0 0.0 0.00 0.08 0.00 1 1017.4
20260506070311 56 266 0.0 0.0 0.00 0.08 0.00 1 1017.4
20260506061759 56 256 0.0 0.0 0.00 0.15 0.09 1 1017.0
20260506061256 57 274 0.0 0.0 0.00 0.16 0.09 1 1017.0
20260506060756 57 265 0.0 0.0 0.00 0.17 0.09 1 1017.0
20260506060253 57 266 0.0 0.0 0.00 0.18 0.09 1 1017.0
20260506051243 57 260 0.0 0.0 0.00 0.20 0.09 1 1016.7
20260506050743 57 257 0.0 0.0 0.00 0.20 0.09 1 1016.7
20260506050243 57 252 0.0 0.0 0.00 0.20 0.09 1 1016.7
20260506044737 57 256 0.0 0.0 0.00 0.20 0.09 1 1016.5
20260506044234 57 259 0.0 0.0 0.00 0.20 0.09 1 1016.4
20260506043734 57 257 0.0 0.0 0.00 0.20 0.09 1 1016.4
20260506043235 57 264 0.0 0.0 0.00 0.20 0.09 1 1016.3
20260506042735 57 266 0.0 0.0 0.00 0.21 0.09 1 1016.2
20260506042230 57 266 0.0 0.0 0.00 0.21 0.09 1 1016.2
20260506042002 58 270 0.0 0.0 0.00 0.22 0.09 1 1016.1
20260506041231 58 277 0.0 0.0 0.00 0.22 0.09 1 1016.0
20260506040730 58 272 0.0 0.0 0.00 0.22 0.09 1 1016.0
20260506040228 58 273 0.0 0.0 0.00 0.23 0.09 1 1016.0
20260506035730 58 267 0.0 0.0 0.00 0.23 0.09 1 1015.9
20260506035725 58 267 0.0 0.0 0.00 0.23 0.09 1 1015.8
20260506034952 58 265 0.0 0.0 0.00 0.23 0.09 1 1015.9
20260506034221 58 265 0.0 0.0 0.00 0.24 0.09 1 1015.8
20260506033722 58 259 0.0 0.0 0.00 0.24 0.09 1 1015.8
20260506033219 58 267 0.0 0.0 0.00 0.24 0.09 1 1015.6
20260506032718 58 277 0.0 0.0 0.00 0.25 0.09 1 1015.6
20260506032217 59 277 0.0 0.0 0.00 0.25 0.09 1 1015.3
20260506032213 59 267 0.0 0.0 0.00 0.25 0.09 1 1015.4
20260506031208 59 256 0.0 0.0 0.00 0.25 0.09 1 1015.2
20260506030707 59 252 0.0 0.0 0.00 0.26 0.09 1 1015.1
20260506030207 60 281 0.0 0.0 0.00 0.26 0.09 1 1015.0
20260506025704 60 275 0.0 0.0 0.00 0.26 0.09 1 1015.0
20260506025204 60 279 0.0 3.5 0.00 0.27 0.09 1 1015.0
20260506024704 60 264 0.0 5.2 0.00 0.28 0.09 1 1015.1
20260506024433 60 283 0.0 5.2 0.00 0.28 0.09 1 1015.0
20260506023702 60 264 0.0 3.5 0.00 0.28 0.09 1 1014.9
20260506023201 60 277 0.9 6.1 0.00 0.28 0.09 1 1014.9
20260506022655 60 260 0.9 6.1 0.00 0.30 0.09 1 1014.8
20260506022153 60 288 0.0 6.1 0.00 0.30 0.09 1 1014.8
20260506021652 61 257 0.0 0.0 0.00 0.30 0.09 1 1014.8
20260506021152 61 261 0.0 0.0 0.00 0.31 0.09 1 1014.7
20260506020653 61 254 0.0 0.0 0.00 0.31 0.09 1 1014.6
20260506020152 61 263 0.0 0.0 0.00 0.31 0.09 1 1014.6
20260506015648 61 271 0.0 0.0 0.00 0.31 0.09 1 1014.5
20260506015149 62 249 0.0 0.0 0.00 0.32 0.09 2 1014.5
20260506014651 62 267 0.0 0.9 0.00 0.32 0.09 4 1014.4
20260506014149 62 267 0.0 7.0 0.00 0.33 0.09 7 1014.4
20260506013649 62 250 1.7 12.2 0.00 0.34 0.09 8 1014.4
20260506013149 62 280 0.9 12.2 0.00 0.34 0.09 15 1014.4
20260506012921 62 255 0.9 8.7 0.00 0.34 0.09 16 1014.3
20260506012142 63 260 0.0 8.7 0.00 0.34 0.09 19 1014.4
20260506011642 63 265 0.0 3.5 0.00 0.35 0.09 24 1014.4
20260506011415 63 289 0.0 0.0 0.00 0.35 0.09 29 1014.4
20260506010643 64 264 0.0 0.0 0.00 0.36 0.09 24 1014.3
20260506010138 64 276 0.0 0.0 0.00 0.36 0.09 24 1014.3
20260506005905 64 261 0.0 0.0 0.00 0.37 0.09 25 1014.3
20260506005402 64 298 0.9 13.0 0.00 0.37 0.09 30 1014.3
20260506004632 65 257 0.9 13.0 0.00 0.38 0.09 32 1014.3
20260506004132 65 298 0.0 0.9 0.00 0.39 0.09 35 1014.2
20260506003633 65 256 0.0 10.4 0.00 0.40 0.09 33 1014.2
20260506003404 66 269 0.9 10.4 0.00 0.40 0.09 33 1014.1
20260506002628 66 268 0.9 10.4 0.00 0.41 0.09 32 1014.1
20260506002129 66 269 0.0 10.4 0.00 0.42 0.09 30 1014.0
20260506001628 66 284 0.0 1.7 0.00 0.42 0.09 29 1014.0
20260506001128 65 281 1.7 11.3 0.00 0.43 0.09 25 1014.0
20260506000859 65 270 1.7 11.3 0.00 0.44 0.09 24 1013.9
20260506000401 65 261 0.0 11.3 0.00 0.44 0.09 22 1013.9
20260505235625 65 296 0.0 3.5 0.00 0.46 0.09 22 1013.9
20260505235125 65 265 0.0 0.0 0.00 0.46 0.09 17 1013.9
20260505234624 65 273 0.9 8.7 0.00 0.47 0.09 16 1013.9
20260505234137 65 269 0.9 8.7 0.00 0.47 0.09 22 1014.0
20260505233624 65 286 0.9 8.7 0.00 0.48 0.09 19 1014.0
20260505233125 65 261 0.9 7.8 0.00 0.48 0.09 21 1013.9
20260505232618 65 286 0.9 7.8 0.00 0.48 0.09 27 1013.9